Monarch Pass, CO

12:27 AM MDT on March 30, 2017 (GMT -0600)
Monarch Pass

Weather History for KMYP - June, 2013

Change the Weather History Date:

Thursday, June 6, 2013

  Actual Average (KGUC) Record (KGUC)
Temperature  
Mean Temperature 48 °F -  
Max Temperature 59 °F 69 °F 84 °F (2006)
Min Temperature 37 °F 35 °F 28 °F (1998)
Degree Days  
Heating Degree Days 17    
Moisture  
Dew Point 23 °F    
Average Humidity 43    
Maximum Humidity 81    
Minimum Humidity 23    
Precipitation  
Precipitation 0.00 in - - ()
Sea Level Pressure  
Sea Level Pressure 30.56 in    
Wind  
Wind Speed 10 mph (North)    
Max Wind Speed 30 mph    
Max Gust Speed 36 mph    
Averages and records for this station are not official NWS values.
T = Trace of Precipitation, MM = Missing Value Source: NWS Daily Summary

Daily Weather History Graph

Daily Weather History Graph

Search for Another Location

Airport or City:

Trip Planner

Search our weather history database for the weather conditions in past years. The results will help you decide how hot, cold, wet, or windy it might be!

Date:

Astronomy

Jun. 06, 2013 Rise Set
Actual Time 5:41 AM MDT 8:25 PM MDT
Civil Twilight 5:10 AM MDT 8:57 PM MDT
Nautical Twilight 4:31 AM MDT 9:36 PM MDT
Astronomical Twilight 3:46 AM MDT 10:20 PM MDT
Moon 4:23 AM MDT (6/6) 6:51 PM MDT (6/6)
Length of Visible Light 15h 47m
Length of Day
14h 44m
Waning Crescent, 3% of the Moon is Illuminated
Jun 6
Waning Crescent
Jun 8
New
Jun 16
First Quarter
Jun 23
Full
Jun 29
Last Quarter

Hourly Weather History & Observations

Time (MDT) Temp. Windchill Dew Point Humidity Pressure Visibility Wind Dir Wind Speed Gust Speed Precip Events Conditions
12:13 AM 41.0 °F 33.5 °F 23.0 °F 49% 30.55 in - WNW 13.8 mph - N/A   Clear
12:33 AM 41.0 °F 33.9 °F 21.2 °F 45% 30.55 in - WNW 12.7 mph - N/A   Clear
12:53 AM 41.0 °F 34.3 °F 21.2 °F 45% 30.55 in - WNW 11.5 mph - N/A   Clear
1:13 AM 41.0 °F 34.7 °F 19.4 °F 42% 30.55 in - WNW 10.4 mph 18.4 mph N/A   Clear
1:33 AM 39.2 °F 33.6 °F 15.8 °F 39% 30.55 in - NW 8.1 mph - N/A   Clear
1:53 AM 41.0 °F 37.1 °F 14.0 °F 33% 30.55 in - WNW 5.8 mph - N/A   Clear
2:13 AM 39.2 °F - 14.0 °F 36% 30.55 in - Calm Calm - N/A   Clear
2:33 AM 39.2 °F - 14.0 °F 36% 30.55 in - Calm Calm - N/A   Clear
2:53 AM 41.0 °F - 12.2 °F 31% 30.55 in - Calm Calm - N/A   Clear
3:13 AM 39.2 °F 33.0 °F 14.0 °F 36% 30.55 in - WNW 9.2 mph - N/A   Clear
3:33 AM 39.2 °F 35.9 °F 12.2 °F 33% 30.55 in - NW 4.6 mph - N/A   Clear
3:53 AM 39.2 °F 35.9 °F 12.2 °F 33% 30.55 in - NNW 4.6 mph - N/A   Clear
4:13 AM 39.2 °F 33.6 °F 12.2 °F 33% 30.54 in - NW 8.1 mph - N/A   Clear
4:33 AM 39.2 °F 34.2 °F 12.2 °F 33% 30.54 in - NNW 6.9 mph 16.1 mph N/A   Clear
4:53 AM 39.2 °F 33.6 °F 14.0 °F 36% 30.54 in - North 8.1 mph - N/A   Clear
5:13 AM 39.2 °F 33.6 °F 14.0 °F 36% 30.54 in - NNW 8.1 mph - N/A   Clear
5:33 AM 39.2 °F 34.2 °F 14.0 °F 36% 30.55 in - North 6.9 mph - N/A   Clear
5:53 AM 41.0 °F - 14.0 °F 33% 30.55 in - Calm Calm - N/A   Clear
6:13 AM 41.0 °F 36.4 °F 15.8 °F 36% 30.55 in - North 6.9 mph - N/A   Clear
6:33 AM 41.0 °F 37.1 °F 17.6 °F 39% 30.55 in - NNE 5.8 mph - N/A   Clear
6:53 AM 42.8 °F 40.1 °F 17.6 °F 36% 30.56 in - ENE 4.6 mph - N/A   Clear
7:13 AM 42.8 °F 39.3 °F 19.4 °F 39% 30.56 in - East 5.8 mph - N/A   Clear
7:33 AM 42.8 °F 40.1 °F 21.2 °F 42% 30.56 in - North 4.6 mph - N/A   Clear
7:53 AM 44.6 °F 41.4 °F 21.2 °F 39% 30.56 in - North 5.8 mph - N/A   Clear
8:13 AM 44.6 °F 42.2 °F 21.2 °F 39% 30.57 in - NNE 4.6 mph - N/A   Clear
8:33 AM 44.6 °F - 19.4 °F 37% 30.58 in - Calm Calm - N/A   Clear
8:53 AM 46.4 °F 44.3 °F 21.2 °F 37% 30.58 in - North 4.6 mph - N/A   Clear
9:13 AM 46.4 °F - 24.8 °F 43% 30.58 in - Calm Calm - N/A   Clear
9:33 AM 46.4 °F 45.2 °F 23.0 °F 40% 30.58 in - West 3.5 mph - N/A   Clear
9:53 AM 50.0 °F - 23.0 °F 35% 30.58 in - Calm Calm - N/A   Clear
10:13 AM 48.2 °F - 21.2 °F 34% 30.58 in - West 5.8 mph - N/A   Clear
10:33 AM 50.0 °F - 23.0 °F 35% 30.58 in - West 6.9 mph - N/A   Clear
10:53 AM 50.0 °F - 23.0 °F 35% 30.58 in - West 8.1 mph 19.6 mph N/A   Clear
11:13 AM 50.0 °F - 23.0 °F 35% 30.58 in - WSW 15.0 mph 20.7 mph N/A   Clear
11:33 AM 51.8 °F - 23.0 °F 33% 30.58 in - West 18.4 mph - N/A   Clear
11:53 AM 53.6 °F - 24.8 °F 33% 30.58 in - SW 12.7 mph 18.4 mph N/A   Scattered Clouds
12:13 PM 51.8 °F - 23.0 °F 33% 30.58 in - NNW 11.5 mph - N/A   Clear
12:33 PM 53.6 °F - 23.0 °F 30% 30.58 in - WSW 11.5 mph - N/A   Scattered Clouds
12:53 PM 55.4 °F - 24.8 °F 31% 30.58 in - SW 13.8 mph 18.4 mph N/A   Scattered Clouds
1:13 PM 55.4 °F - 24.8 °F 31% 30.58 in - West 15.0 mph - N/A   Clear
1:33 PM 55.4 °F - 23.0 °F 29% 30.58 in - SW 13.8 mph 24.2 mph N/A   Scattered Clouds
1:53 PM 59.0 °F - 23.0 °F 25% 30.57 in - West 18.4 mph 23.0 mph N/A   Scattered Clouds
2:13 PM 59.0 °F - 23.0 °F 25% 30.56 in - WSW 18.4 mph 25.3 mph N/A   Scattered Clouds
2:33 PM 57.2 °F - 23.0 °F 27% 30.56 in - West 18.4 mph 35.7 mph N/A   Scattered Clouds
2:53 PM 53.6 °F - 21.2 °F 28% 30.55 in - SW 18.4 mph 32.2 mph N/A   Scattered Clouds
3:13 PM 51.8 °F - 21.2 °F 30% 30.56 in - SW 16.1 mph 26.5 mph N/A Thunderstorm Thunderstorm
3:33 PM 55.4 °F - 23.0 °F 29% 30.56 in - East 5.8 mph 12.7 mph N/A   Overcast
3:53 PM 53.6 °F - 19.4 °F 26% 30.56 in - NW 4.6 mph 19.6 mph N/A   Overcast
4:13 PM 55.4 °F - 17.6 °F 23% 30.55 in - NNW 13.8 mph 27.6 mph N/A   Mostly Cloudy
4:33 PM 55.4 °F - 21.2 °F 26% 30.56 in - NE 6.9 mph - N/A Thunderstorm Thunderstorm
4:53 PM 51.8 °F - 23.0 °F 33% 30.55 in - NNE 6.9 mph - N/A   Mostly Cloudy
5:13 PM 51.8 °F - 23.0 °F 33% 30.55 in - ENE 15.0 mph - N/A   Overcast
5:33 PM 46.4 °F 39.8 °F 26.6 °F 46% 30.55 in - NE 16.1 mph 27.6 mph N/A   Overcast
5:53 PM 46.4 °F 42.9 °F 23.0 °F 40% 30.55 in - NE 6.9 mph - N/A   Overcast
6:13 PM 44.6 °F 37.4 °F 30.2 °F 57% 30.54 in - ENE 16.1 mph 21.9 mph N/A Thunderstorm Thunderstorm
6:33 PM 44.6 °F 38.4 °F 32.0 °F 61% 30.55 in - ENE 12.7 mph - N/A   Overcast
6:53 PM 44.6 °F 37.2 °F 32.0 °F 61% 30.55 in - East 17.3 mph - N/A   Overcast
7:13 PM 46.4 °F 41.9 °F 26.6 °F 46% 30.56 in - NE 9.2 mph - N/A Thunderstorm Thunderstorm
7:33 PM 44.6 °F 39.7 °F 30.2 °F 57% 30.56 in - ENE 9.2 mph - N/A Thunderstorm Thunderstorm
7:53 PM 46.4 °F 43.5 °F 30.2 °F 53% 30.57 in - ENE 5.8 mph - N/A   Overcast
8:13 PM 46.4 °F 41.5 °F 30.2 °F 53% 30.58 in - NE 10.4 mph - N/A   Overcast
8:33 PM 44.6 °F 36.4 °F 30.2 °F 57% 30.56 in - ENE 20.7 mph - N/A   Overcast
8:53 PM 42.8 °F 33.3 °F 30.2 °F 61% 30.56 in - ENE 24.2 mph - N/A   Overcast
9:13 PM 41.0 °F 30.9 °F 30.2 °F 65% 30.57 in - ENE 24.2 mph - N/A   Overcast
9:33 PM 41.0 °F 30.7 °F 32.0 °F 70% 30.57 in - ENE 25.3 mph - N/A   Scattered Clouds
9:53 PM 39.2 °F 28.3 °F 32.0 °F 75% 30.58 in - ENE 25.3 mph 33.4 mph N/A   Clear
10:13 PM 41.0 °F 30.0 °F 32.0 °F 70% 30.58 in - ENE 28.8 mph 33.4 mph N/A   Clear
10:33 PM 39.2 °F 27.8 °F 32.0 °F 75% 30.58 in - ENE 27.6 mph 34.5 mph N/A   Clear
10:53 PM 37.4 °F 25.4 °F 32.0 °F 81% 30.58 in - ENE 27.6 mph 32.2 mph N/A   Clear
11:13 PM 37.4 °F 25.0 °F 32.0 °F 81% 30.58 in - ENE 29.9 mph - N/A   Clear
11:34 PM 37.4 °F 25.4 °F 32.0 °F 81% 30.58 in - East 27.6 mph 32.2 mph N/A   Clear
11:53 PM 37.4 °F 26.9 °F 32.0 °F 81% 30.59 in - East 20.7 mph - N/A   Clear